Location: Fort Wayne
(41.1310°N, 85.1290°W)
Time: 11:20:04
(UTC-04:00)

Oscar 19 - Visible Passes

Search period start: 04 July 2015 00:00
Search period end: 14 July 2015 00:00
Orbit: 773 x 792 km, 98.5° (Epoch: 04 July)

Date Brightness Start Highest point End Pass type
(mag) Time Alt. Az. Time Alt. Az. Time Alt. Az.
04 Jul 12.0 02:25:33 10° NE 02:29:51 27° E 02:30:49 26° ESE visible
04 Jul 11.5 04:04:37 10° N 04:09:17 36° WNW 04:11:22 25° WSW visible
05 Jul 12.8 01:55:22 10° ENE 01:57:44 14° E 01:58:41 13° E visible
05 Jul 10.6 03:32:35 10° N 03:37:42 70° WNW 03:39:15 44° SW visible
06 Jul 10.9 03:00:54 10° NNE 03:05:59 60° E 03:07:07 48° SSE visible
06 Jul 12.4 04:41:29 10° NNW 04:44:55 18° WNW 04:47:40 12° W visible
07 Jul 11.8 02:29:38 10° NE 02:34:05 30° E 02:34:58 28° ESE visible
07 Jul 11.6 04:08:53 10° N 04:13:27 33° WNW 04:15:32 24° WSW visible
08 Jul 12.7 01:59:13 10° NE 02:01:59 15° E 02:02:50 15° E visible
08 Jul 10.7 03:36:48 10° N 03:41:53 64° WNW 03:43:24 43° SW visible
09 Jul 10.8 03:05:04 10° NNE 03:10:10 66° E 03:11:16 52° SSE visible
09 Jul 12.5 04:45:52 10° NNW 04:49:04 16° WNW 04:51:49 11° W visible
10 Jul 11.7 02:33:44 10° NNE 02:38:19 33° E 02:39:07 31° ESE visible
10 Jul 11.7 04:13:09 10° N 04:17:37 30° WNW 04:19:41 22° WSW visible
11 Jul 12.6 02:03:08 10° NE 02:06:15 17° E 02:06:59 16° E visible
11 Jul 10.8 03:41:01 10° N 03:46:04 58° WNW 03:47:33 42° SW visible
12 Jul 10.7 03:09:14 10° NNE 03:14:23 72° ESE 03:15:24 56° SSE visible
12 Jul 12.6 04:50:16 10° NNW 04:53:13 15° WNW 04:55:57 10° W visible
13 Jul 11.6 02:37:50 10° NNE 02:42:32 36° E 02:43:15 34° ESE visible
13 Jul 11.9 04:17:26 10° N 04:21:47 28° WNW 04:23:49 21° WSW visible
